Hourly Data Report for July 13, 2021

WINNIPEG A CS
MANITOBA
Current Station Operator: ECCC - MSC

49°55'00.000" N
97°14'58.000" W
238.70 m
502S001
71849
XWG

Download Data

Hourly Data (July 2021)
Hourly Data Report for July 13, 2021
TIME
LST
Temp Definition
°C
Dew Point Definition
°C
Rel Hum Definition
%
Precip. Amount Definition
mm

Wind Dir Definition
10's deg

Wind Spd Definition
km/h
Visibility Definition
km
Stn Press Definition
kPa
Hmdx Definition


Wind Chill Definition


Weather Definition


00:00 14.7 12.7 88 0.0 32 10   98.54     LegendNANA
01:00 13.8 12.1 89 0.0 30 9   98.56     LegendNANA
02:00 13.3 12.0 92 0.0 28 13   98.58     LegendNANA
03:00 13.5 12.2 92 0.0 26 11   98.58     LegendNANA
04:00 13.9 12.4 91 0.0 26 11   98.61     LegendNANA
05:00 14.8 12.7 88 0.0 22 7   98.65     LegendNANA
06:00 15.8 13.6 87 0.0 26 11   98.66     LegendNANA
07:00 17.2 14.0 82 0.0 27 12   98.67     LegendNANA
08:00 20.2 15.2 73 0.0 31 10   98.71     LegendNANA
09:00 22.0 15.8 68 0.0 1 12   98.73 26   LegendNANA
10:00 23.5 15.7 62 0.0 1 15   98.76 28   LegendNANA
11:00 24.1 13.2 51 0.0 1 15   98.78 27   LegendNANA
12:00 25.4 13.8 49 0.0 35 16   98.79 29   LegendNANA
13:00 25.6 12.7 45 0.0 36 17   98.79 28   LegendNANA
14:00 24.7 12.8 47 0.0 3 19   98.82 27   LegendNANA
15:00 25.8 12.7 44 0.0 3 18   98.83 28   LegendNANA
16:00 25.0 11.2 42 0.0 5 22   98.85 27   LegendNANA
17:00 24.4 10.2 41 0.0 4 22   98.86 26   LegendNANA
18:00 23.6 9.4 41 0.0 4 17   98.88 25   LegendNANA
19:00 22.8 8.9 41 0.0 5 16   98.87     LegendNANA
20:00 21.4 8.8 45 0.0 5 14   98.89     LegendNANA
21:00 18.7 9.1 53 0.0 6 6   98.93     LegendNANA
22:00 17.4 9.3 59 0.0 4 8   98.93     LegendNANA
23:00 16.5 9.6 63 0.0 4 9   98.93     LegendNANA

Notes on Data Quality.

Legend

  • E = Estimated
  • M = Missing
  • NA = Not Available*
  • [empty] = Indicates an unobserved value
Date modified: